Regional Weather Roundup
Issued by NWS

Home | Current Version | Previous Version | Text Only | Print | Product List | Glossary On
Versions: 1 2 3 4 5 6 7 8 9 10 11 12 13 14 15 16 17 18 19 20 21 22 23 24 25 26 27 28 29 30 31 32 33 34 35 36 37 38 39 40 41 42 43 44 45 46 47 48 49 50
000
ASUS42 KFFC 211003
RWRGA
WEATHER ROUNDUP FOR GEORGIA
NATIONAL WEATHER SERVICE PEACHTREE CITY GA
600 AM EDT THU AUG 21 2014

NOTE: "FAIR" INDICATES FEW OR NO CLOUDS BELOW 12,000 FEET WITH NO
SIGNIFICANT WEATHER AND/OR OBSTRUCTIONS TO VISIBILITY.

* = USE WITH CAUTION. THE STATIONS MARKED WITH AN ASTERISK MAY NOT
REPORT WEATHER SUCH AS PRECIPITATION, FOG, OR THUNDER AND ARE NOT
QUALITY CONTROLLED BY NWS.

THE REMARK "TC" DENOTES TEMPERATURE READING IN DEGREES CELSIUS.

GAZ001>058-211100-
NORTH GEORGIA

CITY           SKY/WX    TMP DP  RH WIND       PRES   REMARKS
ATLANTA        PTCLDY    69  67  93 W3        30.11R
ATHENS         CLEAR     68  65  90 CALM      30.08R
CHAMBLEE       CLEAR     68  65  90 CALM      30.10S
PEACHTREE CITY PTCLDY    69  68  96 CALM      30.12R FOG
ROME           FOG       69  69 100 CALM      30.11R VSB 1/2
WEST ATLANTA   CLEAR     69  67  93 CALM      30.10S
GAINESVILLE    CLEAR     69  65  86 W6        30.12R
CARTERSVILLE   CLOUDY    68  66  93 CALM      30.12R FOG


CITY           SKY/WX    TMP DP  RH WIND       PRES   REMARKS
DALTON*        FOG       64  64 100 CALM      30.12R VSB 1/2
MARIETTA       CLEAR     68  67  98 W6        30.11S
$$

GAZ059>098-102>109-211100-
CENTRAL GEORGIA

CITY           SKY/WX    TMP DP  RH WIND       PRES   REMARKS
AUGUSTA-BUSH   PTCLDY    73  68  84 N3        30.05R
AUGUSTA-DANIEL PTCLDY    75  68  78 NW8       30.06R
COLUMBUS       PTCLDY    73  70  90 CALM      30.09R
MACON          MOCLDY    70  70 100 CALM      30.08R
ROBINS AFB     MOCLDY    70  69  96 N3        30.07S


CITY           SKY/WX    TMP DP  RH WIND       PRES   REMARKS
LAGRANGE*      PTCLDY    73  73  98 CALM      30.11S
SYLVANIA*      CLEAR     72  71  98 CALM      30.04S
MILLEDGEVILLE* MOCLDY    50 N/A N/A CALM      30.07S
$$

GAZ099>101-110>166-211100-
SOUTH GEORGIA

CITY           SKY/WX    TMP DP  RH WIND       PRES   REMARKS
SAVANNAH       PTCLDY    74  69  85 CALM      30.04R
VALDOSTA       PTCLDY    73  70  90 CALM      30.07R
ALMA           PTCLDY    73  70  90 W3        30.07R
ST SIMONS      CLEAR     76  68  76 W6        30.05R
FT STEWART     CLEAR     71  68  90 CALM      30.03R
ALBANY         PTCLDY    73  72  96 CALM      30.11R
HUNTER AFB     CLEAR     73  71  93 NW5       30.02S
MOODY AFB      PTCLDY    73  71  93 CALM      30.07R
BRUNSWICK      CLEAR     73  68  83 W5        30.06S


CITY           SKY/WX    TMP DP  RH WIND       PRES   REMARKS
BAINBRIDGE*    CLEAR     79  77  94 CALM      30.09R
MOULTRIE*      PTCLDY    73  72  94 NW3       30.10R
VIDALIA*         N/A     72  70  94 W5        30.07R
WAYCROSS*      PTCLDY    74  73  96 CALM      30.07R
DOUGLAS*       PTCLDY    73  72  94 W3        30.09S
$$


USA.gov is the U.S. government's official web portal to all federal, state and local government web resources and services.